• In Hungary
  • List of Countries
  • For 7 days
  • Water Temperature
  • Satellite Maps
  • Weather Map
  • News
  • Weather Widgets
  • user-avatar
    Login

    Hourly Weather Nesterovo

    Today, 13 December, Wednesday

    Time Temperature Precipitation Wind Pressure Humidity
    00:00 -24°C° 0 mm 2 mps 718 mmHg 83%
    01:00 -24°C° 0 mm 2 mps 718 mmHg 83%
    02:00 -20°C° 0.1 mm 1 mps 718 mmHg 85%
    03:00 -20°C° 0.1 mm 1 mps 718 mmHg 88%
    04:00 -20°C° 0.1 mm 1 mps 718 mmHg 90%
    05:00 -19°C° 0.1 mm 1 mps 718 mmHg 92%
    06:00 -19°C° 0.1 mm 1 mps 718 mmHg 93%
    07:00 -19°C° 0.1 mm 1 mps 718 mmHg 94%
    08:00 -18°C° 0.1 mm 1 mps 718 mmHg 92%
    09:00 -18°C° 0.1 mm 1 mps 718 mmHg 91%
    10:00 -17°C° 0.1 mm 1 mps 719 mmHg 89%
    11:00 -16°C° 0.1 mm 1 mps 719 mmHg 88%
    12:00 -15°C° 0.1 mm 1 mps 719 mmHg 86%
    13:00 -15°C° 0.1 mm 1 mps 719 mmHg 85%
    14:00 -15°C° 0.1 mm 1 mps 719 mmHg 88%
    15:00 -16°C° 0.1 mm 1 mps 719 mmHg 91%
    16:00 -17°C° 0.1 mm 1 mps 720 mmHg 94%
    17:00 -17°C° 0.1 mm 1 mps 720 mmHg 94%
    18:00 -17°C° 0.1 mm 1 mps 720 mmHg 95%
    19:00 -17°C° 0.1 mm 1 mps 721 mmHg 95%
    20:00 -16°C° 0.1 mm 1 mps 721 mmHg 95%
    21:00 -16°C° 0.1 mm 1 mps 721 mmHg 95%
    22:00 -16°C° 0.1 mm 1 mps 721 mmHg 95%
    23:00 -16°C° 0.1 mm 1 mps 721 mmHg 95%

    Tomorrow, 14 December, Thursday

    Time Temperature Precipitation Wind Pressure Humidity
    00:00 -16°C° 0.1 mm 1 mps 721 mmHg 95%
    01:00 -18°C° 0.1 mm 2 mps 721 mmHg 95%
    02:00 -18°C° 0 mm 2 mps 721 mmHg 95%
    03:00 -18°C° 0 mm 2 mps 721 mmHg 95%
    04:00 -18°C° 0 mm 2 mps 721 mmHg 95%
    05:00 -18°C° 0 mm 2 mps 721 mmHg 95%
    06:00 -18°C° 0 mm 2 mps 721 mmHg 95%
    07:00 -18°C° 0 mm 2 mps 721 mmHg 94%
    08:00 -17°C° 0 mm 2 mps 722 mmHg 92%
    09:00 -16°C° 0 mm 2 mps 722 mmHg 90%
    10:00 -16°C° 0 mm 3 mps 722 mmHg 88%
    11:00 -15°C° 0 mm 3 mps 722 mmHg 85%
    12:00 -16°C° 0 mm 4 mps 722 mmHg 82%
    13:00 -15°C° 0 mm 4 mps 722 mmHg 80%
    14:00 -15°C° 0 mm 3 mps 721 mmHg 83%
    15:00 -16°C° 0 mm 3 mps 721 mmHg 87%
    16:00 -16°C° 0 mm 2 mps 721 mmHg 91%
    17:00 -16°C° 0.1 mm 2 mps 722 mmHg 92%
    18:00 -16°C° 0.1 mm 2 mps 722 mmHg 92%
    19:00 -16°C° 0.1 mm 2 mps 722 mmHg 93%
    20:00 -16°C° 0.1 mm 2 mps 722 mmHg 93%
    21:00 -16°C° 0.1 mm 2 mps 722 mmHg 92%
    22:00 -17°C° 0.1 mm 3 mps 722 mmHg 91%
    23:00 -17°C° 0.1 mm 3 mps 722 mmHg 91%

    Day after tomorrow, 15 December, Friday

    Time Temperature Precipitation Wind Pressure Humidity
    00:00 -17°C° 0.1 mm 3 mps 722 mmHg 91%
    01:00 -17°C° 0.1 mm 3 mps 722 mmHg 91%
    02:00 -17°C° 0.1 mm 3 mps 722 mmHg 90%
    03:00 -19°C° 0.1 mm 4 mps 721 mmHg 90%
    04:00 -19°C° 0.1 mm 4 mps 721 mmHg 89%
    05:00 -20°C° 0 mm 4 mps 721 mmHg 89%
    06:00 -20°C° 0 mm 4 mps 722 mmHg 89%
    07:00 -22°C° 0 mm 4 mps 722 mmHg 89%
    08:00 -20°C° 0 mm 4 mps 722 mmHg 87%
    09:00 -20°C° 0 mm 4 mps 722 mmHg 86%
    10:00 -19°C° 0 mm 4 mps 723 mmHg 85%
    11:00 -19°C° 0.1 mm 4 mps 722 mmHg 84%
    12:00 -18°C° 0.1 mm 4 mps 722 mmHg 83%
    13:00 -18°C° 0.1 mm 5 mps 722 mmHg 82%
    14:00 -18°C° 0.1 mm 4 mps 722 mmHg 85%
    15:00 -17°C° 0.1 mm 3 mps 722 mmHg 88%
    16:00 -17°C° 0.1 mm 2 mps 722 mmHg 91%
    17:00 -17°C° 0 mm 2 mps 722 mmHg 91%
    18:00 -17°C° 0 mm 2 mps 722 mmHg 92%
    19:00 -17°C° 0 mm 2 mps 722 mmHg 93%
    20:00 -17°C° 0.1 mm 2 mps 722 mmHg 93%
    21:00 -17°C° 0.1 mm 2 mps 722 mmHg 93%
    22:00 -17°C° 0.1 mm 2 mps 722 mmHg 93%
    23:00 -16°C° 0.1 mm 2 mps 722 mmHg 94%

    16 December, Saturday

    Time Temperature Precipitation Wind Pressure Humidity
    00:00 -16°C° 0.1 mm 2 mps 721 mmHg 94%
    01:00 -16°C° 0.1 mm 2 mps 721 mmHg 94%
    02:00 -15°C° 0.1 mm 2 mps 721 mmHg 94%
    03:00 -15°C° 0.1 mm 2 mps 720 mmHg 94%
    04:00 -14°C° 0.1 mm 2 mps 720 mmHg 94%
    05:00 -14°C° 0.2 mm 2 mps 720 mmHg 94%
    06:00 -13°C° 0.2 mm 2 mps 719 mmHg 94%
    07:00 -13°C° 0.2 mm 2 mps 719 mmHg 94%
    08:00 -13°C° 0.2 mm 3 mps 719 mmHg 92%
    09:00 -12°C° 0.2 mm 3 mps 719 mmHg 90%
    10:00 -11°C° 0.2 mm 4 mps 718 mmHg 89%
    11:00 -11°C° 0.2 mm 4 mps 718 mmHg 87%
    12:00 -10°C° 0.2 mm 4 mps 717 mmHg 86%
    13:00 -11°C° 0.2 mm 5 mps 717 mmHg 85%
    14:00 -10°C° 0.2 mm 4 mps 717 mmHg 86%
    15:00 -10°C° 0.2 mm 4 mps 717 mmHg 87%
    16:00 -10°C° 0.2 mm 4 mps 717 mmHg 88%
    17:00 -11°C° 0.1 mm 4 mps 717 mmHg 88%
    18:00 -11°C° 0.1 mm 4 mps 717 mmHg 88%
    19:00 -11°C° 0.1 mm 4 mps 717 mmHg 89%
    20:00 -10°C° 0.1 mm 3 mps 717 mmHg 90%
    21:00 -10°C° 0.1 mm 3 mps 717 mmHg 91%
    22:00 -10°C° 0.1 mm 3 mps 716 mmHg 92%
    23:00 -12°C° 0.2 mm 3 mps 716 mmHg 92%

    17 December, Sunday

    Time Temperature Precipitation Wind Pressure Humidity
    00:00 -12°C° 0.2 mm 3 mps 716 mmHg 92%
    01:00 -12°C° 0.2 mm 3 mps 716 mmHg 92%
    02:00 -13°C° 0.1 mm 3 mps 716 mmHg 92%
    03:00 -12°C° 0.1 mm 2 mps 716 mmHg 92%
    04:00 -13°C° 0.1 mm 2 mps 716 mmHg 92%
    05:00 -14°C° 0 mm 2 mps 716 mmHg 93%
    06:00 -15°C° 0 mm 2 mps 716 mmHg 93%
    07:00 -16°C° 0 mm 2 mps 717 mmHg 94%
    08:00 -15°C° 0 mm 2 mps 717 mmHg 92%
    09:00 -14°C° 0 mm 2 mps 717 mmHg 91%
    10:00 -13°C° 0 mm 2 mps 717 mmHg 89%
    11:00 -12°C° 0.1 mm 2 mps 717 mmHg 87%
    12:00 -13°C° 0.1 mm 3 mps 717 mmHg 85%
    13:00 -12°C° 0.1 mm 3 mps 717 mmHg 83%
    14:00 -13°C° 0.1 mm 3 mps 717 mmHg 85%
    15:00 -14°C° 0.1 mm 3 mps 717 mmHg 88%
    16:00 -15°C° 0.1 mm 3 mps 717 mmHg 90%
    17:00 -14°C° 0 mm 2 mps 717 mmHg 91%
    18:00 -15°C° 0 mm 2 mps 718 mmHg 91%
    19:00 -15°C° 0 mm 2 mps 718 mmHg 92%
    20:00 -15°C° 0.1 mm 2 mps 718 mmHg 92%
    21:00 -16°C° 0.1 mm 3 mps 717 mmHg 92%
    22:00 -16°C° 0.1 mm 3 mps 717 mmHg 92%
    23:00 -15°C° 0.1 mm 3 mps 717 mmHg 92%

    18 December, Monday

    Time Temperature Precipitation Wind Pressure Humidity
    00:00 -15°C° 0.1 mm 3 mps 717 mmHg 91%
    01:00 -14°C° 0.1 mm 3 mps 716 mmHg 91%
    02:00 -14°C° 0.1 mm 3 mps 716 mmHg 91%
    03:00 -14°C° 0.1 mm 3 mps 716 mmHg 91%
    04:00 -14°C° 0.1 mm 3 mps 716 mmHg 90%
    05:00 -15°C° 0.1 mm 4 mps 716 mmHg 90%
    06:00 -16°C° 0.1 mm 4 mps 716 mmHg 90%
    07:00 -16°C° 0.1 mm 4 mps 716 mmHg 89%
    08:00 -16°C° 0 mm 4 mps 717 mmHg 87%
    09:00 -16°C° 0 mm 4 mps 717 mmHg 85%
    10:00 -17°C° 0 mm 5 mps 718 mmHg 83%
    11:00 -17°C° 0 mm 5 mps 718 mmHg 81%
    12:00 -17°C° 0 mm 5 mps 718 mmHg 80%
    13:00 -17°C° 0 mm 5 mps 719 mmHg 78%
    14:00 -17°C° 0 mm 4 mps 719 mmHg 81%
    15:00 -18°C° 0 mm 3 mps 720 mmHg 84%
    16:00 -19°C° 0 mm 3 mps 720 mmHg 87%
    17:00 -19°C° 0 mm 2 mps 721 mmHg 88%
    18:00 -20°C° 0 mm 2 mps 721 mmHg 89%
    19:00 -21°C° 0 mm 2 mps 722 mmHg 90%
    20:00 -21°C° 0 mm 2 mps 722 mmHg 90%
    21:00 -23°C° 0 mm 2 mps 722 mmHg 91%
    22:00 -23°C° 0 mm 2 mps 723 mmHg 91%
    23:00 -23°C° 0 mm 2 mps 723 mmHg 91%
    Show more